Zurück zum Katalog

COSMOS 2491 DEB

AktivPO
NORAD 45172·DEBRIS·🇷🇺 Russia

Gestartet Dec 25, 2013 von Plesetsk Cosmodrome

Loading…

Nächste Überflüge (nächste 24 Stunden)

TLE

AktuellSource: Space-Track

Epoche: Sep 11, 2026, 16:34 UTC

1 45172U 13076AD  26254.69063428  .00001516  00000-0  74462-2 0  9991
2 45172  82.4589  53.4170 0132100 298.9373  59.8526 12.68913526305258

Verfolge COSMOS 2491 DEB in Echtzeit mit AllMySat

Download on the App Store